Year,Month,Day,Hour,Minute,Value (Times are PST for temperature in C)
2017,10,02,00,00,11.00
2017,10,02,00,01,11.00
2017,10,02,00,02,10.90
2017,10,02,00,03,11.00
2017,10,02,00,04,11.00
2017,10,02,00,05,11.10
2017,10,02,00,06,11.10
2017,10,02,00,07,11.20
2017,10,02,00,08,11.20
2017,10,02,00,09,11.20
2017,10,02,00,10,11.20
2017,10,02,00,11,11.20
2017,10,02,00,12,11.20
2017,10,02,00,13,11.10
2017,10,02,00,14,11.10
2017,10,02,00,15,11.10
2017,10,02,00,16,11.10
2017,10,02,00,17,11.10
2017,10,02,00,18,11.10
2017,10,02,00,19,11.20
2017,10,02,00,20,11.20
2017,10,02,00,21,11.20
2017,10,02,00,22,11.20
2017,10,02,00,23,11.20
2017,10,02,00,24,11.20
2017,10,02,00,25,11.20
2017,10,02,00,26,11.20
2017,10,02,00,27,11.30
2017,10,02,00,28,11.30
2017,10,02,00,29,11.30
2017,10,02,00,30,11.40
2017,10,02,00,31,11.40
2017,10,02,00,32,11.40
2017,10,02,00,33,11.40
2017,10,02,00,34,11.40
2017,10,02,00,35,11.50
2017,10,02,00,36,11.60
2017,10,02,00,37,11.70
2017,10,02,00,38,11.70
2017,10,02,00,39,11.80
2017,10,02,00,40,11.90
2017,10,02,00,41,11.90
2017,10,02,00,42,11.90
2017,10,02,00,43,11.90
2017,10,02,00,44,11.90
2017,10,02,00,45,11.80
2017,10,02,00,46,11.80
2017,10,02,00,47,11.80
2017,10,02,00,48,11.70
2017,10,02,00,49,11.70
2017,10,02,00,50,11.70
2017,10,02,00,51,11.70
2017,10,02,00,52,11.60
2017,10,02,00,53,11.60
2017,10,02,00,54,11.60
2017,10,02,00,55,11.60
2017,10,02,00,56,11.50
2017,10,02,00,57,11.50
2017,10,02,00,58,11.40
2017,10,02,00,59,11.40
2017,10,02,01,00,11.30
2017,10,02,01,01,11.30
2017,10,02,01,02,11.20
2017,10,02,01,03,11.20
2017,10,02,01,04,11.10
2017,10,02,01,05,11.10
2017,10,02,01,06,11.10
2017,10,02,01,07,11.00
2017,10,02,01,08,11.00
2017,10,02,01,09,10.90
2017,10,02,01,10,10.90
2017,10,02,01,11,11.00
2017,10,02,01,12,11.00
2017,10,02,01,13,11.00
2017,10,02,01,14,11.00
2017,10,02,01,15,11.00
2017,10,02,01,16,10.90
2017,10,02,01,17,10.90
2017,10,02,01,18,10.90
2017,10,02,01,19,10.80
2017,10,02,01,20,10.80
2017,10,02,01,21,10.80
2017,10,02,01,22,10.70
2017,10,02,01,23,10.70
2017,10,02,01,24,10.70
2017,10,02,01,25,10.70
2017,10,02,01,26,10.70
2017,10,02,01,27,10.80
2017,10,02,01,28,10.90
2017,10,02,01,29,10.90
2017,10,02,01,30,10.90
2017,10,02,01,31,10.90
2017,10,02,01,32,10.80
2017,10,02,01,33,10.80
2017,10,02,01,34,10.80
2017,10,02,01,35,10.70
2017,10,02,01,36,10.70
2017,10,02,01,37,10.60
2017,10,02,01,38,10.60
2017,10,02,01,39,10.50
2017,10,02,01,40,10.40
2017,10,02,01,41,10.40
2017,10,02,01,42,10.30
2017,10,02,01,43,10.30
2017,10,02,01,44,10.20
2017,10,02,01,45,10.10
2017,10,02,01,46,10.10
2017,10,02,01,47,10.00
2017,10,02,01,48,9.90
2017,10,02,01,49,9.90
2017,10,02,01,50,9.90
2017,10,02,01,51,9.90
2017,10,02,01,52,9.90
2017,10,02,01,53,9.90
2017,10,02,01,54,9.90
2017,10,02,01,55,9.90
2017,10,02,01,56,10.00
2017,10,02,01,57,10.00
2017,10,02,01,58,10.00
2017,10,02,01,59,10.00
2017,10,02,02,00,9.90
2017,10,02,02,01,9.90
2017,10,02,02,02,10.00
2017,10,02,02,03,10.00
2017,10,02,02,04,10.10
2017,10,02,02,05,10.10
2017,10,02,02,06,10.10
2017,10,02,02,07,10.10
2017,10,02,02,08,10.10
2017,10,02,02,09,10.10
2017,10,02,02,10,10.00
2017,10,02,02,11,10.00
2017,10,02,02,12,9.90
2017,10,02,02,13,9.90
2017,10,02,02,14,9.80
2017,10,02,02,15,9.80
2017,10,02,02,16,9.80
2017,10,02,02,17,9.70
2017,10,02,02,18,9.70
2017,10,02,02,19,9.80
2017,10,02,02,20,9.80
2017,10,02,02,21,9.80
2017,10,02,02,22,9.80
2017,10,02,02,23,9.70
2017,10,02,02,24,9.70
2017,10,02,02,25,9.70
2017,10,02,02,26,9.70
2017,10,02,02,27,9.70
2017,10,02,02,28,9.70
2017,10,02,02,29,9.60
2017,10,02,02,30,9.60
2017,10,02,02,31,9.60
2017,10,02,02,32,9.60
2017,10,02,02,33,9.70
2017,10,02,02,34,9.70
2017,10,02,02,35,9.70
2017,10,02,02,36,9.60
2017,10,02,02,37,9.60
2017,10,02,02,38,9.60
2017,10,02,02,39,9.50
2017,10,02,02,40,9.40
2017,10,02,02,41,9.40
2017,10,02,02,42,9.30
2017,10,02,02,43,9.30
2017,10,02,02,44,9.30
2017,10,02,02,45,9.30
2017,10,02,02,46,9.30
2017,10,02,02,47,9.30
2017,10,02,02,48,9.30
2017,10,02,02,49,9.30
2017,10,02,02,50,9.30
2017,10,02,02,51,9.40
2017,10,02,02,52,9.40
2017,10,02,02,53,9.40
2017,10,02,02,54,9.40
2017,10,02,02,55,9.40
2017,10,02,02,56,9.40
2017,10,02,02,57,9.50
2017,10,02,02,58,9.50
2017,10,02,02,59,9.50
2017,10,02,03,00,9.50
2017,10,02,03,01,9.50
2017,10,02,03,02,9.50
2017,10,02,03,03,9.50
2017,10,02,03,04,9.50
2017,10,02,03,05,9.50
2017,10,02,03,06,9.60
2017,10,02,03,07,9.60
2017,10,02,03,08,9.60
2017,10,02,03,09,9.60
2017,10,02,03,10,9.70
2017,10,02,03,11,9.70
2017,10,02,03,12,9.70
2017,10,02,03,13,9.70
2017,10,02,03,14,9.80
2017,10,02,03,15,9.80
2017,10,02,03,16,9.80
2017,10,02,03,17,9.90
2017,10,02,03,18,9.90
2017,10,02,03,19,10.00
2017,10,02,03,20,10.00
2017,10,02,03,21,10.00
2017,10,02,03,22,10.10
2017,10,02,03,23,10.10
2017,10,02,03,24,10.10
2017,10,02,03,25,10.00
2017,10,02,03,26,9.90
2017,10,02,03,27,9.90
2017,10,02,03,28,9.80
2017,10,02,03,29,9.70
2017,10,02,03,30,9.70
2017,10,02,03,31,9.60
2017,10,02,03,32,9.50
2017,10,02,03,33,9.40
2017,10,02,03,34,9.30
2017,10,02,03,35,9.20
2017,10,02,03,36,9.10
2017,10,02,03,37,9.00
2017,10,02,03,38,8.90
2017,10,02,03,39,8.80
2017,10,02,03,40,8.90
2017,10,02,03,41,8.90
2017,10,02,03,42,8.90
2017,10,02,03,43,8.90
2017,10,02,03,44,9.00
2017,10,02,03,45,9.10
2017,10,02,03,46,9.20
2017,10,02,03,47,9.20
2017,10,02,03,48,9.30
2017,10,02,03,49,9.40
2017,10,02,03,50,9.40
2017,10,02,03,51,9.50
2017,10,02,03,52,9.50
2017,10,02,03,53,9.50
2017,10,02,03,54,9.40
2017,10,02,03,55,9.40
2017,10,02,03,56,9.30
2017,10,02,03,57,9.30
2017,10,02,03,58,9.30
2017,10,02,03,59,9.30
2017,10,02,04,00,9.30
2017,10,02,04,01,9.30
2017,10,02,04,02,9.20
2017,10,02,04,03,9.20
2017,10,02,04,04,9.20
2017,10,02,04,05,9.20
2017,10,02,04,06,9.20
2017,10,02,04,07,9.10
2017,10,02,04,08,9.10
2017,10,02,04,09,9.10
2017,10,02,04,10,9.10
2017,10,02,04,11,9.10
2017,10,02,04,12,9.20
2017,10,02,04,13,9.20
2017,10,02,04,14,9.30
2017,10,02,04,15,9.30
2017,10,02,04,16,9.30
2017,10,02,04,17,9.30
2017,10,02,04,18,9.30
2017,10,02,04,19,9.30
2017,10,02,04,20,9.30
2017,10,02,04,21,9.30
2017,10,02,04,22,9.30
2017,10,02,04,23,9.20
2017,10,02,04,24,9.20
2017,10,02,04,25,9.20
2017,10,02,04,26,9.20
2017,10,02,04,27,9.20
2017,10,02,04,28,9.20
2017,10,02,04,29,9.20
2017,10,02,04,30,9.20
2017,10,02,04,31,9.10
2017,10,02,04,32,9.10
2017,10,02,04,33,9.10
2017,10,02,04,34,9.10
2017,10,02,04,35,9.10
2017,10,02,04,36,9.00
2017,10,02,04,37,9.00
2017,10,02,04,38,9.00
2017,10,02,04,39,8.90
2017,10,02,04,40,8.90
2017,10,02,04,41,8.90
2017,10,02,04,42,9.00
2017,10,02,04,43,9.00
2017,10,02,04,44,9.10
2017,10,02,04,45,9.10
2017,10,02,04,46,9.10
2017,10,02,04,47,9.10
2017,10,02,04,48,9.10
2017,10,02,04,49,9.10
2017,10,02,04,50,9.10
2017,10,02,04,51,9.10
2017,10,02,04,52,9.20
2017,10,02,04,53,9.20
2017,10,02,04,54,9.20
2017,10,02,04,55,9.30
2017,10,02,04,56,9.30
2017,10,02,04,57,9.30
2017,10,02,04,58,9.40
2017,10,02,04,59,9.50
2017,10,02,05,00,9.60
2017,10,02,05,01,9.60
2017,10,02,05,02,9.70
2017,10,02,05,03,9.80
2017,10,02,05,04,9.80
2017,10,02,05,05,9.90
2017,10,02,05,06,9.90
2017,10,02,05,07,9.90
2017,10,02,05,08,10.00
2017,10,02,05,09,10.00
2017,10,02,05,10,10.00
2017,10,02,05,11,10.00
2017,10,02,05,12,10.00
2017,10,02,05,13,10.00
2017,10,02,05,14,10.10
2017,10,02,05,15,10.10
2017,10,02,05,16,10.20
2017,10,02,05,17,10.20
2017,10,02,05,18,10.20
2017,10,02,05,19,10.30
2017,10,02,05,20,10.30
2017,10,02,05,21,10.30
2017,10,02,05,22,10.30
2017,10,02,05,23,10.20
2017,10,02,05,24,10.20
2017,10,02,05,25,10.10
2017,10,02,05,26,10.10
2017,10,02,05,27,10.00
2017,10,02,05,28,10.00
2017,10,02,05,29,9.90
2017,10,02,05,30,9.90
2017,10,02,05,31,9.90
2017,10,02,05,32,9.90
2017,10,02,05,33,9.90
2017,10,02,05,34,9.90
2017,10,02,05,35,9.90
2017,10,02,05,36,10.00
2017,10,02,05,37,10.00
2017,10,02,05,38,10.10
2017,10,02,05,39,10.10
2017,10,02,05,40,10.10
2017,10,02,05,41,10.20
2017,10,02,05,42,10.20
2017,10,02,05,43,10.20
2017,10,02,05,44,10.30
2017,10,02,05,45,10.30
2017,10,02,05,46,10.30
2017,10,02,05,47,10.30
2017,10,02,05,48,10.30
2017,10,02,05,49,10.40
2017,10,02,05,50,10.40
2017,10,02,05,51,10.40
2017,10,02,05,52,10.40
2017,10,02,05,53,10.50
2017,10,02,05,54,10.50
2017,10,02,05,55,10.40
2017,10,02,05,56,10.40
2017,10,02,05,57,10.40
2017,10,02,05,58,10.40
2017,10,02,05,59,10.40
2017,10,02,06,00,10.40
2017,10,02,06,01,10.40
2017,10,02,06,02,10.40
2017,10,02,06,03,10.40
2017,10,02,06,04,10.40
2017,10,02,06,05,10.40
2017,10,02,06,06,10.30
2017,10,02,06,07,10.30
2017,10,02,06,08,10.30
2017,10,02,06,09,10.30
2017,10,02,06,10,10.30
2017,10,02,06,11,10.30
2017,10,02,06,12,10.30
2017,10,02,06,13,10.20
2017,10,02,06,14,10.20
2017,10,02,06,15,10.10
2017,10,02,06,16,10.00
2017,10,02,06,17,10.00
2017,10,02,06,18,9.90
2017,10,02,06,19,9.90
2017,10,02,06,20,9.80
2017,10,02,06,21,9.90
2017,10,02,06,22,9.90
2017,10,02,06,23,9.90
2017,10,02,06,24,9.90
2017,10,02,06,25,10.00
2017,10,02,06,26,10.00
2017,10,02,06,27,10.00
2017,10,02,06,28,10.00
2017,10,02,06,29,10.00
2017,10,02,06,30,10.00
2017,10,02,06,31,10.00
2017,10,02,06,32,10.10
2017,10,02,06,33,10.10
2017,10,02,06,34,10.10
2017,10,02,06,35,10.00
2017,10,02,06,36,10.00
2017,10,02,06,37,10.00
2017,10,02,06,38,10.00
2017,10,02,06,39,9.90
2017,10,02,06,40,9.90
2017,10,02,06,41,9.90
2017,10,02,06,42,9.90
2017,10,02,06,43,9.90
2017,10,02,06,44,9.90
2017,10,02,06,45,9.90
2017,10,02,06,46,9.90
2017,10,02,06,47,9.90
2017,10,02,06,48,9.90
2017,10,02,06,49,9.90
2017,10,02,06,50,9.80
2017,10,02,06,51,9.80
2017,10,02,06,52,9.80
2017,10,02,06,53,9.80
2017,10,02,06,54,9.80
2017,10,02,06,55,9.90
2017,10,02,06,56,9.90
2017,10,02,06,57,9.90
2017,10,02,06,58,9.90
2017,10,02,06,59,9.90
2017,10,02,07,00,9.90
2017,10,02,07,01,9.90
2017,10,02,07,02,9.90
2017,10,02,07,03,9.90
2017,10,02,07,04,9.90
2017,10,02,07,05,9.90
2017,10,02,07,06,9.90
2017,10,02,07,07,9.90
2017,10,02,07,08,9.90
2017,10,02,07,09,9.90
2017,10,02,07,10,9.90
2017,10,02,07,11,10.00
2017,10,02,07,12,10.00
2017,10,02,07,13,10.00
2017,10,02,07,14,10.10
2017,10,02,07,15,10.00
2017,10,02,07,16,10.00
2017,10,02,07,17,9.90
2017,10,02,07,18,9.90
2017,10,02,07,19,9.80
2017,10,02,07,20,9.80
2017,10,02,07,21,9.80
2017,10,02,07,22,9.80
2017,10,02,07,23,9.80
2017,10,02,07,24,9.80
2017,10,02,07,25,9.80
2017,10,02,07,26,9.80
2017,10,02,07,27,9.80
2017,10,02,07,28,9.90
2017,10,02,07,29,9.90
2017,10,02,07,30,10.00
2017,10,02,07,31,10.00
2017,10,02,07,32,10.00
2017,10,02,07,33,10.00
2017,10,02,07,34,10.00
2017,10,02,07,35,10.00
2017,10,02,07,36,10.00
2017,10,02,07,37,10.00
2017,10,02,07,38,10.00
2017,10,02,07,39,10.00
2017,10,02,07,40,10.00
2017,10,02,07,41,10.00
2017,10,02,07,42,10.00
2017,10,02,07,43,10.00
2017,10,02,07,44,10.00
2017,10,02,07,45,10.00
2017,10,02,07,46,10.00
2017,10,02,07,47,9.90
2017,10,02,07,48,9.90
2017,10,02,07,49,9.90
2017,10,02,07,50,9.90
2017,10,02,07,51,9.90
2017,10,02,07,52,9.90
2017,10,02,07,53,10.00
2017,10,02,07,54,10.00
2017,10,02,07,55,10.00
2017,10,02,07,56,10.00
2017,10,02,07,57,10.10
2017,10,02,07,58,10.00
2017,10,02,07,59,10.00
2017,10,02,08,00,10.00
2017,10,02,08,01,10.10
2017,10,02,08,02,10.10
2017,10,02,08,03,10.10
2017,10,02,08,04,10.10
2017,10,02,08,05,10.20
2017,10,02,08,06,10.20
2017,10,02,08,07,10.30
2017,10,02,08,08,10.30
2017,10,02,08,09,10.30
2017,10,02,08,10,10.40
2017,10,02,08,11,10.40
2017,10,02,08,12,10.40
2017,10,02,08,13,10.50
2017,10,02,08,14,10.50
2017,10,02,08,15,10.60
2017,10,02,08,16,10.60
2017,10,02,08,17,10.60
2017,10,02,08,18,10.60
2017,10,02,08,19,10.60
2017,10,02,08,20,10.70
2017,10,02,08,21,10.70
2017,10,02,08,22,10.70
2017,10,02,08,23,10.80
2017,10,02,08,24,10.80
2017,10,02,08,25,10.80
2017,10,02,08,26,10.80
2017,10,02,08,27,10.80
2017,10,02,08,28,10.90
2017,10,02,08,29,10.90
2017,10,02,08,30,10.90
2017,10,02,08,31,10.90
2017,10,02,08,32,10.90
2017,10,02,08,33,10.90
2017,10,02,08,34,10.90
2017,10,02,08,35,10.90
2017,10,02,08,36,10.90
2017,10,02,08,37,11.00
2017,10,02,08,38,11.00
2017,10,02,08,39,11.00
2017,10,02,08,40,11.10
2017,10,02,08,41,11.10
2017,10,02,08,42,11.10
2017,10,02,08,43,11.20
2017,10,02,08,44,11.20
2017,10,02,08,45,11.30
2017,10,02,08,46,11.30
2017,10,02,08,47,11.30
2017,10,02,08,48,11.40
2017,10,02,08,49,11.40
2017,10,02,08,50,11.40
2017,10,02,08,51,11.50
2017,10,02,08,52,11.50
2017,10,02,08,53,11.60
2017,10,02,08,54,11.60
2017,10,02,08,55,11.60
2017,10,02,08,56,11.70
2017,10,02,08,57,11.70
2017,10,02,08,58,11.70
2017,10,02,08,59,11.70
2017,10,02,09,00,11.70
2017,10,02,09,01,11.80
2017,10,02,09,02,11.80
2017,10,02,09,03,11.90
2017,10,02,09,04,11.90
2017,10,02,09,05,11.90
2017,10,02,09,06,12.00
2017,10,02,09,07,12.10
2017,10,02,09,08,12.10
2017,10,02,09,09,12.10
2017,10,02,09,10,12.10
2017,10,02,09,11,12.10
2017,10,02,09,12,12.20
2017,10,02,09,13,12.20
2017,10,02,09,14,12.20
2017,10,02,09,15,12.20
2017,10,02,09,16,12.20
2017,10,02,09,17,12.20
2017,10,02,09,18,12.30
2017,10,02,09,19,12.30
2017,10,02,09,20,12.30
2017,10,02,09,21,12.30
2017,10,02,09,22,12.30
2017,10,02,09,23,12.30
2017,10,02,09,24,12.30
2017,10,02,09,25,12.30
2017,10,02,09,26,12.30
2017,10,02,09,27,12.40
2017,10,02,09,28,12.40
2017,10,02,09,29,12.40
2017,10,02,09,30,12.40
2017,10,02,09,31,12.50
2017,10,02,09,32,12.50
2017,10,02,09,33,12.60
2017,10,02,09,34,12.60
2017,10,02,09,35,12.60
2017,10,02,09,36,12.60
2017,10,02,09,37,12.70
2017,10,02,09,38,12.70
2017,10,02,09,39,12.70
2017,10,02,09,40,12.70
2017,10,02,09,41,12.80
2017,10,02,09,42,12.80
2017,10,02,09,43,12.80
2017,10,02,09,44,12.80
2017,10,02,09,45,12.80
2017,10,02,09,46,12.80
2017,10,02,09,47,12.80
2017,10,02,09,48,12.80
2017,10,02,09,49,12.90
2017,10,02,09,50,12.90
2017,10,02,09,51,12.90
2017,10,02,09,52,12.90
2017,10,02,09,53,12.90
2017,10,02,09,54,12.90
2017,10,02,09,55,12.90
2017,10,02,09,56,12.90
2017,10,02,09,57,12.90
2017,10,02,09,58,12.80
2017,10,02,09,59,12.80
2017,10,02,10,00,12.90
2017,10,02,10,01,12.90
2017,10,02,10,02,12.90
2017,10,02,10,03,13.00
2017,10,02,10,04,13.00
2017,10,02,10,05,13.10
2017,10,02,10,06,13.10
2017,10,02,10,07,13.10
2017,10,02,10,08,13.10
2017,10,02,10,09,13.10
2017,10,02,10,10,13.10
2017,10,02,10,11,13.10
2017,10,02,10,12,13.10
2017,10,02,10,13,13.10
2017,10,02,10,14,13.10
2017,10,02,10,15,13.10
2017,10,02,10,16,13.10
2017,10,02,10,17,13.10
2017,10,02,10,18,13.20
2017,10,02,10,19,13.20
2017,10,02,10,20,13.20
2017,10,02,10,21,13.20
2017,10,02,10,22,13.30
2017,10,02,10,23,13.30
2017,10,02,10,24,13.20
2017,10,02,10,25,13.20
2017,10,02,10,26,13.30
2017,10,02,10,27,13.30
2017,10,02,10,28,13.30
2017,10,02,10,29,13.30
2017,10,02,10,30,13.30
2017,10,02,10,31,13.30
2017,10,02,10,32,13.20
2017,10,02,10,33,13.20
2017,10,02,10,34,13.30
2017,10,02,10,35,13.30
2017,10,02,10,36,13.40
2017,10,02,10,37,13.40
2017,10,02,10,38,13.40
2017,10,02,10,39,13.40
2017,10,02,10,40,13.40
2017,10,02,10,41,13.40
2017,10,02,10,42,13.30
2017,10,02,10,43,13.30
2017,10,02,10,44,13.30
2017,10,02,10,45,13.20
2017,10,02,10,46,13.20
2017,10,02,10,47,13.20
2017,10,02,10,48,13.30
2017,10,02,10,49,13.30
2017,10,02,10,50,13.30
2017,10,02,10,51,13.30
2017,10,02,10,52,13.40
2017,10,02,10,53,13.40
2017,10,02,10,54,13.50
2017,10,02,10,55,13.50
2017,10,02,10,56,13.60
2017,10,02,10,57,13.60
2017,10,02,10,58,13.70
2017,10,02,10,59,13.60
2017,10,02,11,00,13.50
2017,10,02,11,01,13.50
2017,10,02,11,02,13.50
2017,10,02,11,03,13.50
2017,10,02,11,04,13.40
2017,10,02,11,05,13.40
2017,10,02,11,06,13.40
2017,10,02,11,07,13.50
2017,10,02,11,08,13.50
2017,10,02,11,09,13.60
2017,10,02,11,10,13.60
2017,10,02,11,11,13.70
2017,10,02,11,12,13.70
2017,10,02,11,13,13.70
2017,10,02,11,14,13.70
2017,10,02,11,15,13.80
2017,10,02,11,16,13.80
2017,10,02,11,17,13.80
2017,10,02,11,18,13.80
2017,10,02,11,19,13.80
2017,10,02,11,20,13.90
2017,10,02,11,21,13.90
2017,10,02,11,22,13.90
2017,10,02,11,23,13.90
2017,10,02,11,24,13.90
2017,10,02,11,25,13.90
2017,10,02,11,26,14.00
2017,10,02,11,27,14.00
2017,10,02,11,28,14.10
2017,10,02,11,29,14.10
2017,10,02,11,30,14.20
2017,10,02,11,31,14.10
2017,10,02,11,32,14.20
2017,10,02,11,33,14.20
2017,10,02,11,34,14.20
2017,10,02,11,35,14.10
2017,10,02,11,36,14.00
2017,10,02,11,37,14.00
2017,10,02,11,38,14.00
2017,10,02,11,39,14.10
2017,10,02,11,40,14.00
2017,10,02,11,41,14.10
2017,10,02,11,42,14.20
2017,10,02,11,43,14.30
2017,10,02,11,44,14.30
2017,10,02,11,45,14.30
2017,10,02,11,46,14.30
2017,10,02,11,47,14.30
2017,10,02,11,48,14.20
2017,10,02,11,49,14.20
2017,10,02,11,50,14.20
2017,10,02,11,51,14.20
2017,10,02,11,52,14.20
2017,10,02,11,53,14.20
2017,10,02,11,54,14.30
2017,10,02,11,55,14.30
2017,10,02,11,56,14.40
2017,10,02,11,57,14.50
2017,10,02,11,58,14.60
2017,10,02,11,59,14.50
2017,10,02,12,00,14.50
2017,10,02,12,01,14.60
2017,10,02,12,02,14.70
2017,10,02,12,03,14.80
2017,10,02,12,04,14.80
2017,10,02,12,05,14.80
2017,10,02,12,06,14.60
2017,10,02,12,07,14.60
2017,10,02,12,08,14.60
2017,10,02,12,09,14.60
2017,10,02,12,10,14.60
2017,10,02,12,11,14.60
2017,10,02,12,12,14.50
2017,10,02,12,13,14.50
2017,10,02,12,14,14.40
2017,10,02,12,15,14.40
2017,10,02,12,16,14.40
2017,10,02,12,17,14.40
2017,10,02,12,18,14.50
2017,10,02,12,19,14.40
2017,10,02,12,20,14.40
2017,10,02,12,21,14.30
2017,10,02,12,22,14.30
2017,10,02,12,23,14.30
2017,10,02,12,24,14.30
2017,10,02,12,25,14.40
2017,10,02,12,26,14.40
2017,10,02,12,27,14.40
2017,10,02,12,28,14.50
2017,10,02,12,29,14.60
2017,10,02,12,30,14.60
2017,10,02,12,31,14.60
2017,10,02,12,32,14.60
2017,10,02,12,33,14.60
2017,10,02,12,34,14.70
2017,10,02,12,35,14.70
2017,10,02,12,36,14.80
2017,10,02,12,37,14.80
2017,10,02,12,38,14.90
2017,10,02,12,39,14.90
2017,10,02,12,40,14.90
2017,10,02,12,41,15.00
2017,10,02,12,42,15.00
2017,10,02,12,43,15.00
2017,10,02,12,44,15.00
2017,10,02,12,45,15.10
2017,10,02,12,46,15.10
2017,10,02,12,47,15.00
2017,10,02,12,48,15.00
2017,10,02,12,49,15.10
2017,10,02,12,50,15.10
2017,10,02,12,51,15.10
2017,10,02,12,52,15.20
2017,10,02,12,53,15.20
2017,10,02,12,54,15.30
2017,10,02,12,55,15.30
2017,10,02,12,56,15.30
2017,10,02,12,57,15.30
2017,10,02,12,58,15.10
2017,10,02,12,59,15.00
2017,10,02,13,00,15.00
2017,10,02,13,01,15.10
2017,10,02,13,02,15.20
2017,10,02,13,03,15.20
2017,10,02,13,04,15.20
2017,10,02,13,05,15.20
2017,10,02,13,06,15.20
2017,10,02,13,07,15.40
2017,10,02,13,08,15.40
2017,10,02,13,09,15.30
2017,10,02,13,10,15.30
2017,10,02,13,11,15.40
2017,10,02,13,12,15.40
2017,10,02,13,13,15.40
2017,10,02,13,14,15.40
2017,10,02,13,15,15.40
2017,10,02,13,16,15.30
2017,10,02,13,17,15.30
2017,10,02,13,18,15.30
2017,10,02,13,19,15.30
2017,10,02,13,20,15.30
2017,10,02,13,21,15.30
2017,10,02,13,22,15.30
2017,10,02,13,23,15.30
2017,10,02,13,24,15.50
2017,10,02,13,25,15.60
2017,10,02,13,26,15.60
2017,10,02,13,27,15.60
2017,10,02,13,28,15.60
2017,10,02,13,29,15.60
2017,10,02,13,30,15.70
2017,10,02,13,31,15.80
2017,10,02,13,32,15.80
2017,10,02,13,33,15.80
2017,10,02,13,34,15.80
2017,10,02,13,35,15.80
2017,10,02,13,36,15.80
2017,10,02,13,37,15.70
2017,10,02,13,38,15.70
2017,10,02,13,39,15.70
2017,10,02,13,40,15.70
2017,10,02,13,41,15.70
2017,10,02,13,42,15.70
2017,10,02,13,43,15.80
2017,10,02,13,44,15.80
2017,10,02,13,45,15.80
2017,10,02,13,46,15.90
2017,10,02,13,47,15.90
2017,10,02,13,48,15.90
2017,10,02,13,49,15.90
2017,10,02,13,50,15.90
2017,10,02,13,51,15.90
2017,10,02,13,52,15.90
2017,10,02,13,53,15.90
2017,10,02,13,54,16.00
2017,10,02,13,55,16.10
2017,10,02,13,56,16.10
2017,10,02,13,57,16.20
2017,10,02,13,58,16.20
2017,10,02,13,59,16.20
2017,10,02,14,00,16.20
2017,10,02,14,01,16.20
2017,10,02,14,02,16.30
2017,10,02,14,03,16.20
2017,10,02,14,04,16.30
2017,10,02,14,05,16.30
2017,10,02,14,06,16.40
2017,10,02,14,07,16.40
2017,10,02,14,08,16.40
2017,10,02,14,09,16.40
2017,10,02,14,10,16.50
2017,10,02,14,11,16.50
2017,10,02,14,12,16.50
2017,10,02,14,13,16.60
2017,10,02,14,14,16.60
2017,10,02,14,15,16.60
2017,10,02,14,16,16.70
2017,10,02,14,17,16.80
2017,10,02,14,18,16.80
2017,10,02,14,19,16.80
2017,10,02,14,20,16.80
2017,10,02,14,21,16.70
2017,10,02,14,22,16.60
2017,10,02,14,23,16.50
2017,10,02,14,24,16.40
2017,10,02,14,25,16.40
2017,10,02,14,26,16.60
2017,10,02,14,27,16.60
2017,10,02,14,28,16.60
2017,10,02,14,29,16.60
2017,10,02,14,30,16.60
2017,10,02,14,31,16.60
2017,10,02,14,32,16.70
2017,10,02,14,33,16.70
2017,10,02,14,34,16.70
2017,10,02,14,35,16.70
2017,10,02,14,36,16.70
2017,10,02,14,37,16.70
2017,10,02,14,38,16.70
2017,10,02,14,39,16.80
2017,10,02,14,40,16.80
2017,10,02,14,41,16.80
2017,10,02,14,42,16.90
2017,10,02,14,43,16.90
2017,10,02,14,44,16.90
2017,10,02,14,45,16.90
2017,10,02,14,46,16.90
2017,10,02,14,47,16.90
2017,10,02,14,48,16.80
2017,10,02,14,49,16.80
2017,10,02,14,50,16.80
2017,10,02,14,51,16.80
2017,10,02,14,52,16.90
2017,10,02,14,53,17.00
2017,10,02,14,54,17.20
2017,10,02,14,55,17.20
2017,10,02,14,56,17.20
2017,10,02,14,57,17.20
2017,10,02,14,58,17.10
2017,10,02,14,59,17.10
2017,10,02,15,00,17.10
2017,10,02,15,01,17.20
2017,10,02,15,02,17.20
2017,10,02,15,03,17.30
2017,10,02,15,04,17.40
2017,10,02,15,05,17.40
2017,10,02,15,06,17.40
2017,10,02,15,07,17.40
2017,10,02,15,08,17.40
2017,10,02,15,09,17.40
2017,10,02,15,10,17.40
2017,10,02,15,11,17.40
2017,10,02,15,12,17.40
2017,10,02,15,13,17.50
2017,10,02,15,14,17.50
2017,10,02,15,15,17.60
2017,10,02,15,16,17.60
2017,10,02,15,17,17.60
2017,10,02,15,18,17.60
2017,10,02,15,19,17.60
2017,10,02,15,20,17.60
2017,10,02,15,21,17.60
2017,10,02,15,22,17.50
2017,10,02,15,23,17.50
2017,10,02,15,24,17.50
2017,10,02,15,25,17.50
2017,10,02,15,26,17.50
2017,10,02,15,27,17.50
2017,10,02,15,28,17.50
2017,10,02,15,29,17.60
2017,10,02,15,30,17.60
2017,10,02,15,31,17.60
2017,10,02,15,32,17.60
2017,10,02,15,33,17.60
2017,10,02,15,34,17.50
2017,10,02,15,35,17.50
2017,10,02,15,36,17.50
2017,10,02,15,37,17.50
2017,10,02,15,38,17.50
2017,10,02,15,39,17.60
2017,10,02,15,40,17.60
2017,10,02,15,41,17.70
2017,10,02,15,42,17.70
2017,10,02,15,43,17.70
2017,10,02,15,44,17.80
2017,10,02,15,45,18.00
2017,10,02,15,46,18.00
2017,10,02,15,47,17.90
2017,10,02,15,48,17.80
2017,10,02,15,49,17.80
2017,10,02,15,50,17.80
2017,10,02,15,51,17.80
2017,10,02,15,52,17.70
2017,10,02,15,53,17.70
2017,10,02,15,54,17.70
2017,10,02,15,55,17.80
2017,10,02,15,56,17.80
2017,10,02,15,57,17.90
2017,10,02,15,58,17.90
2017,10,02,15,59,17.90
2017,10,02,16,00,17.90
2017,10,02,16,01,17.90
2017,10,02,16,02,17.90
2017,10,02,16,03,17.90
2017,10,02,16,04,17.90
2017,10,02,16,05,17.90
2017,10,02,16,06,17.90
2017,10,02,16,07,17.90
2017,10,02,16,08,17.90
2017,10,02,16,09,18.00
2017,10,02,16,10,18.00
2017,10,02,16,11,18.00
2017,10,02,16,12,18.00
2017,10,02,16,13,18.00
2017,10,02,16,14,18.00
2017,10,02,16,15,18.00
2017,10,02,16,16,18.00
2017,10,02,16,17,17.90
2017,10,02,16,18,18.00
2017,10,02,16,19,18.00
2017,10,02,16,20,18.10
2017,10,02,16,21,18.10
2017,10,02,16,22,18.10
2017,10,02,16,23,18.10
2017,10,02,16,24,18.10
2017,10,02,16,25,18.20
2017,10,02,16,26,18.20
2017,10,02,16,27,18.20
2017,10,02,16,28,18.20
2017,10,02,16,29,18.20
2017,10,02,16,30,18.10
2017,10,02,16,31,18.20
2017,10,02,16,32,18.10
2017,10,02,16,33,18.10
2017,10,02,16,34,18.10
2017,10,02,16,35,18.10
2017,10,02,16,36,18.20
2017,10,02,16,37,18.20
2017,10,02,16,38,18.30
2017,10,02,16,39,18.30
2017,10,02,16,40,18.20
2017,10,02,16,41,18.20
2017,10,02,16,42,18.20
2017,10,02,16,43,18.20
2017,10,02,16,44,18.20
2017,10,02,16,45,18.20
2017,10,02,16,46,18.20
2017,10,02,16,47,18.20
2017,10,02,16,48,18.20
2017,10,02,16,49,18.20
2017,10,02,16,50,18.20
2017,10,02,16,51,18.10
2017,10,02,16,52,18.10
2017,10,02,16,53,18.10
2017,10,02,16,54,18.10
2017,10,02,16,55,18.00
2017,10,02,16,56,18.00
2017,10,02,16,57,17.90
2017,10,02,16,58,18.00
2017,10,02,16,59,17.90
2017,10,02,17,00,17.90
2017,10,02,17,01,17.90
2017,10,02,17,02,17.80
2017,10,02,17,03,17.90
2017,10,02,17,04,17.90
2017,10,02,17,05,17.90
2017,10,02,17,06,17.90
2017,10,02,17,07,17.90
2017,10,02,17,08,17.90
2017,10,02,17,09,17.90
2017,10,02,17,10,17.80
2017,10,02,17,11,17.80
2017,10,02,17,12,17.80
2017,10,02,17,13,17.90
2017,10,02,17,14,17.90
2017,10,02,17,15,17.90
2017,10,02,17,16,17.90
2017,10,02,17,17,17.80
2017,10,02,17,18,17.80
2017,10,02,17,19,17.80
2017,10,02,17,20,17.80
2017,10,02,17,21,17.90
2017,10,02,17,22,17.90
2017,10,02,17,23,17.90
2017,10,02,17,24,17.90
2017,10,02,17,25,17.90
2017,10,02,17,26,17.90
2017,10,02,17,27,17.90
2017,10,02,17,28,17.90
2017,10,02,17,29,17.90
2017,10,02,17,30,17.90